Precipitable_Water
1.52 1.49 1.47 1.43 1.43 1.41 1.43 1.44 1.44 1.46 1.44 1.43 1.40 1.40 1.41 1.41 1.37 1.36 1.38 1.34 1.35 1.33 1.32 1.32 1.34 1.35 1.37 1.40 1.43 1.45 1.45 1.45 1.48 1.47 1.44 1.42 1.42 1.42 1.46 1.46 1.41 1.43 1.49 1.51 1.54 1.50 1.48 1.47 1.51 1.58 1.66 1.60 1.61 1.63 1.61 1.60 1.59 1.55 1.52 1.46 1.40 1.43 1.37 1.26 1.14 1.17 1.39 1.57 1.55 1.54 1.60 1.59 1.46 1.47 1.34 1.27 1.26 1.29 1.34 1.36 1.38 1.36 1.37 1.39 1.40
1.50 1.53 1.53 1.49 1.43 1.42 1.43 1.47 1.48 1.50 1.48 1.47 1.45 1.45 1.43 1.42 1.41 1.41 1.36 1.39 1.41 1.38 1.37 1.39 1.40 1.41 1.41 1.42 1.42 1.44 1.46 1.45 1.45 1.45 1.42 1.42 1.40 1.42 1.41 1.43 1.40 1.40 1.44 1.43 1.47 1.50 1.49 1.44 1.44 1.49 1.55 1.51 1.53 1.54 1.53 1.49 1.48 1.44 1.43 1.39 1.34 1.33 1.41 1.26 1.22 1.16 1.14 1.38 1.42 1.53 1.49 1.56 1.33 1.44 1.27 1.14 1.11 1.10 1.04 1.07 1.14 1.18 1.19 1.25 1.27
1.49 1.55 1.55 1.53 1.49 1.47 1.47 1.46 1.48 1.48 1.48 1.50 1.49 1.47 1.46 1.44 1.47 1.42 1.40 1.41 1.44 1.42 1.41 1.43 1.44 1.43 1.42 1.42 1.44 1.45 1.45 1.46 1.48 1.46 1.44 1.43 1.41 1.41 1.43 1.44 1.42 1.40 1.40 1.43 1.48 1.54 1.50 1.46 1.45 1.46 1.47 1.44 1.47 1.49 1.50 1.48 1.50 1.46 1.43 1.43 1.36 1.38 1.42 1.43 1.33 1.24 1.23 1.29 1.44 1.40 1.42 1.43 1.33 1.28 1.25 1.15 1.08 1.06 0.99 1.01 1.03 1.10 1.18 1.23 1.24
1.47 1.52 1.55 1.55 1.56 1.54 1.48 1.49 1.47 1.47 1.47 1.52 1.50 1.51 1.50 1.48 1.48 1.43 1.42 1.44 1.43 1.48 1.58 1.66 1.70 1.66 1.57 1.52 1.46 1.45 1.46 1.47 1.48 1.50 1.49 1.48 1.46 1.44 1.45 1.46 1.46 1.46 1.46 1.50 1.56 1.58 1.56 1.53 1.52 1.52 1.50 1.42 1.43 1.44 1.48 1.49 1.47 1.47 1.45 1.48 1.47 1.46 1.51 1.53 1.51 1.39 1.36 1.28 1.40 1.38 1.41 1.30 1.28 1.27 1.17 1.08 1.04 1.05 1.08 1.12 1.22 1.25 1.31 1.39 1.40
1.44 1.47 1.52 1.53 1.55 1.55 1.54 1.53 1.49 1.48 1.49 1.53 1.53 1.55 1.55 1.54 1.52 1.48 1.46 1.47 1.56 1.68 1.82 1.89 1.86 1.81 1.73 1.69 1.62 1.53 1.50 1.51 1.50 1.52 1.54 1.56 1.54 1.52 1.51 1.51 1.51 1.52 1.53 1.53 1.54 1.55 1.55 1.53 1.55 1.56 1.55 1.47 1.49 1.48 1.52 1.50 1.53 1.51 1.48 1.51 1.50 1.53 1.54 1.53 1.51 1.48 1.38 1.29 1.30 1.36 1.35 1.28 1.25 1.17 1.12 1.02 1.06 1.14 1.20 1.22 1.27 1.31 1.37 1.45 1.49
1.50 1.43 1.47 1.50 1.52 1.54 1.57 1.58 1.54 1.54 1.53 1.53 1.54 1.57 1.60 1.59 1.58 1.58 1.58 1.63 1.74 1.79 1.81 1.82 1.81 1.81 1.77 1.72 1.71 1.67 1.62 1.59 1.56 1.56 1.59 1.63 1.62 1.61 1.60 1.60 1.61 1.61 1.60 1.59 1.58 1.58 1.57 1.60 1.64 1.65 1.60 1.53 1.52 1.60 1.64 1.58 1.55 1.51 1.50 1.52 1.55 1.56 1.53 1.51 1.48 1.41 1.33 1.26 1.21 1.14 1.20 1.14 1.12 1.12 1.19 1.27 1.23 1.19 1.23 1.30 1.36 1.39 1.37 1.37 1.47
1.62 1.48 1.43 1.43 1.47 1.51 1.55 1.57 1.59 1.59 1.61 1.59 1.60 1.63 1.64 1.64 1.63 1.62 1.67 1.69 1.73 1.73 1.76 1.74 1.77 1.77 1.77 1.77 1.78 1.77 1.71 1.66 1.62 1.60 1.62 1.65 1.67 1.67 1.67 1.68 1.67 1.67 1.69 1.67 1.68 1.67 1.67 1.69 1.72 1.75 1.74 1.73 1.71 1.69 1.70 1.67 1.60 1.52 1.52 1.53 1.56 1.54 1.50 1.47 1.45 1.38 1.31 1.20 1.17 1.17 1.15 1.23 1.20 1.14 1.35 1.44 1.41 1.35 1.26 1.24 1.21 1.35 1.41 1.38 1.35
1.63 1.59 1.51 1.43 1.41 1.45 1.52 1.58 1.61 1.64 1.67 1.67 1.64 1.65 1.67 1.67 1.68 1.72 1.75 1.73 1.72 1.73 1.74 1.73 1.78 1.80 1.82 1.86 1.89 1.87 1.81 1.74 1.69 1.67 1.67 1.68 1.69 1.69 1.71 1.70 1.70 1.73 1.72 1.73 1.73 1.73 1.75 1.76 1.77 1.80 1.81 1.83 1.83 1.84 1.82 1.73 1.69 1.58 1.58 1.57 1.57 1.53 1.49 1.48 1.46 1.42 1.35 1.32 1.32 1.30 1.31 1.26 1.30 1.38 1.44 1.43 1.34 1.34 1.41 1.32 1.19 1.22 1.28 1.38 1.43
1.66 1.58 1.56 1.50 1.43 1.44 1.50 1.57 1.63 1.66 1.68 1.69 1.67 1.66 1.67 1.69 1.72 1.73 1.74 1.76 1.78 1.78 1.79 1.80 1.79 1.78 1.80 1.83 1.85 1.87 1.85 1.79 1.77 1.76 1.73 1.73 1.76 1.74 1.74 1.70 1.70 1.67 1.67 1.72 1.77 1.77 1.78 1.79 1.79 1.81 1.83 1.81 1.82 1.90 1.92 1.91 1.81 1.66 1.65 1.65 1.61 1.57 1.53 1.51 1.48 1.43 1.42 1.43 1.43 1.48 1.41 1.34 1.35 1.34 1.33 1.33 1.31 1.29 1.40 1.42 1.32 1.35 1.35 1.30 1.39
1.74 1.63 1.52 1.51 1.52 1.49 1.48 1.52 1.57 1.63 1.65 1.64 1.65 1.67 1.68 1.71 1.74 1.74 1.74 1.75 1.77 1.81 1.81 1.83 1.83 1.81 1.79 1.78 1.78 1.80 1.82 1.85 1.85 1.84 1.82 1.81 1.81 1.82 1.82 1.76 1.71 1.70 1.69 1.66 1.67 1.73 1.76 1.80 1.82 1.81 1.82 1.85 1.91 1.95 1.94 1.95 1.96 1.91 1.83 1.77 1.70 1.64 1.59 1.54 1.51 1.50 1.46 1.40 1.43 1.45 1.42 1.41 1.45 1.46 1.43 1.49 1.54 1.55 1.48 1.45 1.32 1.36 1.35 1.30 1.34
1.77 1.71 1.57 1.51 1.54 1.54 1.50 1.48 1.52 1.54 1.59 1.61 1.63 1.63 1.65 1.68 1.71 1.72 1.74 1.75 1.74 1.78 1.81 1.80 1.81 1.83 1.83 1.81 1.79 1.78 1.83 1.91 1.94 1.89 1.87 1.87 1.88 1.87 1.91 1.86 1.81 1.75 1.73 1.66 1.60 1.64 1.71 1.79 1.81 1.81 1.82 1.85 1.85 1.84 1.85 1.86 1.87 1.86 1.86 1.86 1.82 1.71 1.58 1.49 1.46 1.46 1.42 1.42 1.48 1.48 1.47 1.46 1.54 1.63 1.61 1.62 1.64 1.60 1.54 1.52 1.46 1.42 1.32 1.20 1.09
1.79 1.76 1.73 1.67 1.60 1.58 1.55 1.52 1.50 1.51 1.54 1.57 1.60 1.62 1.63 1.63 1.62 1.64 1.67 1.68 1.73 1.79 1.79 1.80 1.82 1.84 1.85 1.86 1.83 1.82 1.83 1.89 1.90 1.90 1.90 1.89 1.88 1.87 1.91 1.88 1.79 1.74 1.74 1.70 1.71 1.71 1.72 1.73 1.73 1.74 1.76 1.76 1.75 1.75 1.79 1.83 1.83 1.83 1.82 1.81 1.79 1.76 1.73 1.60 1.51 1.50 1.51 1.47 1.46 1.49 1.48 1.46 1.50 1.55 1.56 1.57 1.57 1.59 1.61 1.57 1.54 1.48 1.40 1.31 1.26
1.81 1.80 1.82 1.79 1.71 1.68 1.67 1.60 1.56 1.55 1.54 1.58 1.63 1.64 1.63 1.61 1.61 1.60 1.59 1.65 1.69 1.67 1.70 1.75 1.78 1.83 1.86 1.85 1.84 1.85 1.86 1.90 1.91 1.91 1.90 1.89 1.89 1.90 1.91 1.93 1.94 1.80 1.79 1.82 1.82 1.82 1.80 1.77 1.74 1.75 1.77 1.78 1.76 1.75 1.74 1.76 1.78 1.77 1.75 1.72 1.68 1.65 1.64 1.67 1.73 1.69 1.64 1.53 1.46 1.45 1.46 1.47 1.41 1.43 1.49 1.49 1.53 1.42 1.46 1.46 1.52 1.55 1.54 1.47 1.44
1.88 1.86 1.86 1.84 1.77 1.72 1.71 1.71 1.69 1.68 1.67 1.67 1.69 1.65 1.60 1.57 1.60 1.63 1.63 1.64 1.60 1.58 1.60 1.62 1.67 1.69 1.73 1.77 1.81 1.85 1.86 1.88 1.90 1.90 1.90 1.92 1.94 1.94 1.92 1.93 1.93 1.94 1.86 1.83 1.87 1.91 1.88 1.84 1.80 1.76 1.78 1.78 1.76 1.73 1.71 1.68 1.66 1.65 1.63 1.61 1.58 1.56 1.55 1.55 1.56 1.57 1.55 1.46 1.40 1.33 1.42 1.44 1.34 1.38 1.47 1.50 1.40 1.33 1.33 1.34 1.48 1.52 1.54 1.53 1.63
1.99 1.96 1.91 1.90 1.86 1.79 1.73 1.73 1.84 1.85 1.81 1.78 1.75 1.71 1.67 1.65 1.63 1.64 1.64 1.63 1.60 1.58 1.60 1.61 1.63 1.64 1.63 1.64 1.66 1.71 1.77 1.82 1.83 1.84 1.84 1.85 1.86 1.85 1.84 1.81 1.81 1.83 1.87 1.89 1.91 1.91 1.87 1.84 1.81 1.77 1.76 1.76 1.76 1.75 1.71 1.68 1.67 1.63 1.59 1.57 1.56 1.54 1.52 1.50 1.49 1.48 1.45 1.45 1.43 1.40 1.42 1.46 1.46 1.47 1.49 1.53 1.53 1.54 1.55 1.54 1.57 1.58 1.64 1.72 1.73
1.97 2.01 1.98 1.96 1.94 1.91 1.88 1.84 1.95 1.96 1.89 1.87 1.80 1.72 1.67 1.66 1.69 1.78 1.79 1.73 1.71 1.67 1.66 1.65 1.63 1.63 1.62 1.59 1.54 1.54 1.62 1.69 1.72 1.74 1.77 1.78 1.78 1.78 1.75 1.71 1.68 1.69 1.72 1.75 1.75 1.77 1.78 1.76 1.72 1.69 1.68 1.67 1.68 1.70 1.71 1.72 1.67 1.62 1.57 1.57 1.54 1.53 1.55 1.61 1.63 1.63 1.62 1.62 1.62 1.59 1.58 1.58 1.58 1.58 1.63 1.69 1.73 1.76 1.77 1.76 1.74 1.66 1.58 1.50 1.46
1.94 2.01 2.03 2.03 2.00 2.00 1.97 1.93 1.94 1.98 2.03 1.96 1.89 1.84 1.80 1.77 1.78 1.89 1.89 1.84 1.71 1.67 1.64 1.65 1.66 1.63 1.61 1.60 1.54 1.51 1.54 1.59 1.62 1.65 1.68 1.71 1.71 1.71 1.70 1.67 1.65 1.62 1.62 1.65 1.67 1.69 1.71 1.69 1.65 1.62 1.61 1.60 1.62 1.65 1.69 1.70 1.65 1.62 1.60 1.59 1.59 1.58 1.61 1.70 1.74 1.75 1.75 1.76 1.77 1.77 1.74 1.70 1.67 1.68 1.72 1.77 1.77 1.78 1.72 1.61 1.57 1.62 1.50 1.38 1.37
1.92 1.96 1.99 2.02 2.03 2.03 2.00 1.97 1.93 1.95 2.07 2.04 1.96 1.89 1.89 1.90 1.82 1.83 1.83 1.89 1.83 1.81 1.79 1.75 1.70 1.66 1.63 1.61 1.61 1.58 1.58 1.62 1.64 1.66 1.67 1.69 1.71 1.69 1.71 1.69 1.66 1.65 1.67 1.72 1.76 1.79 1.83 1.83 1.81 1.78 1.75 1.73 1.71 1.71 1.72 1.71 1.66 1.65 1.64 1.61 1.57 1.59 1.66 1.75 1.78 1.81 1.84 1.84 1.81 1.79 1.77 1.74 1.74 1.75 1.76 1.77 1.77 1.76 1.67 1.53 1.57 1.53 1.37 1.29 1.16
1.92 1.98 2.04 2.05 2.04 2.03 2.04 2.02 2.00 2.01 2.04 2.05 1.96 1.92 1.88 1.90 1.93 1.98 1.97 1.95 1.93 1.90 1.85 1.81 1.79 1.79 1.79 1.76 1.74 1.70 1.69 1.71 1.73 1.74 1.76 1.79 1.80 1.80 1.78 1.72 1.66 1.66 1.68 1.69 1.72 1.72 1.73 1.75 1.73 1.72 1.74 1.76 1.76 1.74 1.74 1.76 1.73 1.73 1.74 1.71 1.65 1.64 1.71 1.79 1.77 1.76 1.78 1.78 1.77 1.77 1.77 1.78 1.79 1.78 1.78 1.76 1.72 1.68 1.62 1.52 1.44 1.29 1.12 1.04 0.96
2.00 2.07 2.09 2.06 2.01 1.99 1.99 1.95 1.92 1.91 1.91 1.99 1.96 1.95 1.95 1.95 1.99 2.04 2.05 2.03 1.97 1.93 1.87 1.83 1.80 1.80 1.82 1.81 1.80 1.81 1.79 1.80 1.82 1.82 1.84 1.86 1.89 1.89 1.87 1.77 1.67 1.69 1.74 1.74 1.71 1.72 1.74 1.75 1.77 1.78 1.81 1.82 1.81 1.79 1.77 1.77 1.75 1.76 1.77 1.73 1.71 1.68 1.77 1.77 1.80 1.81 1.79 1.76 1.73 1.72 1.71 1.72 1.72 1.70 1.67 1.63 1.55 1.48 1.41 1.33 1.21 1.08 0.93 0.86 0.81
2.05 2.07 2.07 2.02 1.96 1.92 1.93 1.91 1.85 1.87 1.96 2.02 2.05 1.98 1.96 1.93 1.96 1.99 2.00 2.01 1.99 1.95 1.90 1.88 1.85 1.84 1.85 1.84 1.83 1.86 1.91 1.90 1.89 1.87 1.87 1.88 1.90 1.90 1.88 1.87 1.87 1.85 1.82 1.82 1.80 1.77 1.78 1.79 1.80 1.79 1.78 1.80 1.82 1.83 1.82 1.82 1.86 1.82 1.81 1.74 1.77 1.82 1.83 1.78 1.79 1.78 1.74 1.71 1.67 1.64 1.60 1.58 1.55 1.53 1.47 1.41 1.33 1.25 1.16 1.07 1.00 0.93 0.85 0.78 0.72
2.04 2.04 2.01 1.97 1.97 1.96 1.93 1.98 2.02 2.00 2.02 1.97 1.89 1.91 1.97 1.99 1.97 1.94 1.93 1.96 1.97 1.96 1.96 1.92 1.87 1.83 1.85 1.86 1.88 1.90 1.92 1.89 1.86 1.87 1.89 1.91 1.92 1.94 1.92 1.93 1.95 1.89 1.84 1.82 1.83 1.82 1.83 1.84 1.83 1.84 1.85 1.85 1.89 1.93 1.93 1.89 1.88 1.84 1.80 1.80 1.82 1.77 1.68 1.72 1.73 1.68 1.63 1.57 1.51 1.45 1.39 1.32 1.24 1.17 1.11 1.05 1.02 0.99 0.94 0.91 0.90 0.89 0.87 0.81 0.74
2.04 2.03 1.99 1.96 1.97 1.98 1.98 2.00 2.03 2.03 1.98 1.95 1.93 1.93 1.97 1.98 2.00 2.00 1.97 1.94 1.89 1.89 1.89 1.88 1.85 1.81 1.80 1.82 1.84 1.85 1.89 1.91 1.90 1.87 1.85 1.84 1.83 1.83 1.84 1.85 1.86 1.86 1.80 1.75 1.74 1.75 1.77 1.76 1.76 1.77 1.83 1.91 1.91 1.90 1.88 1.82 1.79 1.79 1.71 1.71 1.67 1.65 1.63 1.58 1.53 1.47 1.39 1.32 1.24 1.14 1.08 1.02 0.96 0.92 0.90 0.87 0.87 0.87 0.85 0.84 0.82 0.80 0.80 0.79 0.78
1.99 1.96 1.94 1.93 1.93 1.95 1.98 1.99 2.01 2.02 2.02 2.03 1.99 1.96 1.95 1.97 1.99 1.97 1.94 1.89 1.88 1.86 1.85 1.84 1.84 1.78 1.76 1.75 1.77 1.78 1.81 1.80 1.81 1.82 1.79 1.76 1.74 1.72 1.70 1.69 1.66 1.64 1.65 1.63 1.67 1.67 1.66 1.61 1.59 1.59 1.61 1.61 1.66 1.69 1.70 1.61 1.46 1.53 1.57 1.50 1.47 1.44 1.39 1.35 1.26 1.17 1.09 1.02 1.00 1.01 1.01 1.02 0.98 0.92 0.87 0.86 0.84 0.82 0.81 0.79 0.77 0.76 0.73 0.72 0.71
1.88 1.87 1.88 1.91 1.90 1.91 1.93 1.94 1.94 1.96 1.97 2.02 1.98 1.94 1.89 1.89 1.89 1.97 1.96 1.91 1.88 1.88 1.86 1.87 1.80 1.70 1.69 1.67 1.68 1.69 1.71 1.72 1.76 1.77 1.73 1.70 1.68 1.63 1.58 1.53 1.51 1.50 1.46 1.47 1.48 1.43 1.34 1.29 1.30 1.31 1.32 1.33 1.34 1.36 1.38 1.39 1.36 1.31 1.30 1.28 1.24 1.23 1.18 1.11 1.05 1.02 1.02 1.02 1.02 0.97 0.90 0.85 0.82 0.80 0.81 0.81 0.80 0.80 0.77 0.75 0.75 0.75 0.74 0.72 0.69
1.81 1.83 1.83 1.83 1.90 1.87 1.88 1.90 1.91 1.90 1.90 1.94 1.94 1.94 1.87 1.81 1.74 1.74 1.76 1.77 1.76 1.73 1.68 1.64 1.62 1.59 1.56 1.55 1.54 1.56 1.57 1.58 1.60 1.61 1.60 1.56 1.53 1.49 1.45 1.41 1.37 1.32 1.28 1.26 1.26 1.29 1.30 1.27 1.29 1.28 1.25 1.22 1.21 1.22 1.23 1.23 1.23 1.20 1.20 1.21 1.20 1.17 1.14 1.10 1.09 1.07 1.01 0.97 0.93 0.87 0.83 0.80 0.78 0.78 0.79 0.77 0.72 0.69 0.69 0.66 0.64 0.63 0.64 0.62 0.59
1.70 1.72 1.75 1.77 1.79 1.80 1.80 1.79 1.80 1.82 1.85 1.85 1.83 1.82 1.81 1.74 1.69 1.67 1.67 1.65 1.62 1.60 1.57 1.53 1.48 1.44 1.41 1.41 1.40 1.40 1.40 1.40 1.41 1.43 1.45 1.42 1.38 1.32 1.27 1.24 1.23 1.20 1.16 1.15 1.16 1.18 1.21 1.25 1.27 1.27 1.26 1.26 1.26 1.26 1.25 1.24 1.21 1.20 1.17 1.14 1.12 1.10 1.08 1.04 0.99 0.96 0.93 0.89 0.84 0.80 0.78 0.77 0.78 0.75 0.70 0.67 0.64 0.65 0.66 0.62 0.58 0.56 0.56 0.55 0.51
1.55 1.57 1.59 1.61 1.61 1.62 1.62 1.65 1.64 1.65 1.65 1.65 1.61 1.58 1.57 1.55 1.50 1.49 1.48 1.47 1.42 1.39 1.37 1.34 1.32 1.31 1.30 1.31 1.31 1.29 1.28 1.29 1.31 1.32 1.33 1.31 1.26 1.23 1.19 1.13 1.08 1.03 1.01 1.01 0.99 1.00 1.00 1.05 1.06 1.06 1.04 1.03 1.04 1.04 1.04 1.05 1.05 1.05 1.04 1.05 1.05 1.06 1.05 1.02 0.98 0.92 0.86 0.79 0.73 0.72 0.71 0.70 0.65 0.65 0.65 0.63 0.62 0.62 0.63 0.59 0.56 0.54 0.54 0.53 0.48
1.40 1.42 1.44 1.43 1.42 1.43 1.42 1.43 1.42 1.41 1.40 1.41 1.42 1.43 1.43 1.44 1.45 1.45 1.48 1.47 1.43 1.39 1.33 1.29 1.27 1.27 1.26 1.23 1.20 1.17 1.17 1.16 1.19 1.21 1.19 1.15 1.10 1.03 0.95 0.91 0.88 0.85 0.86 0.90 0.94 0.96 0.96 0.95 0.94 0.93 0.92 0.91 0.91 0.92 0.92 0.92 0.93 0.95 0.95 0.95 0.93 0.92 0.90 0.86 0.81 0.76 0.73 0.71 0.67 0.66 0.65 0.66 0.65 0.65 0.63 0.60 0.60 0.60 0.62 0.58 0.57 0.55 0.54 0.53 0.48
1.18 1.17 1.20 1.23 1.26 1.29 1.30 1.31 1.33 1.33 1.32 1.31 1.31 1.33 1.39 1.41 1.42 1.39 1.37 1.41 1.41 1.40 1.37 1.30 1.29 1.26 1.18 1.18 1.16 1.07 1.01 1.03 1.05 1.00 0.94 0.90 0.85 0.80 0.76 0.72 0.71 0.73 0.77 0.84 0.88 0.84 0.84 0.85 0.87 0.87 0.87 0.86 0.85 0.85 0.86 0.87 0.87 0.87 0.88 0.88 0.86 0.83 0.79 0.75 0.72 0.71 0.71 0.69 0.68 0.66 0.64 0.64 0.62 0.61 0.60 0.58 0.58 0.58 0.59 0.57 0.55 0.55 0.51 0.48 0.46
1.11 1.07 1.03 1.05 1.09 1.14 1.20 1.20 1.20 1.24 1.23 1.23 1.24 1.23 1.24 1.29 1.32 1.32 1.30 1.30 1.31 1.32 1.31 1.32 1.31 1.29 1.25 1.16 1.12 1.06 0.99 0.94 0.91 0.88 0.83 0.79 0.75 0.73 0.71 0.69 0.67 0.70 0.76 0.78 0.78 0.77 0.77 0.77 0.79 0.81 0.83 0.83 0.82 0.83 0.84 0.83 0.81 0.79 0.77 0.77 0.76 0.73 0.72 0.71 0.71 0.72 0.70 0.67 0.66 0.65 0.64 0.61 0.59 0.58 0.56 0.55 0.53 0.53 0.54 0.54 0.53 0.51 0.48 0.46 0.44
0.92 0.92 0.98 1.02 1.01 0.96 0.96 1.08 1.10 1.09 1.09 1.11 1.11 1.10 1.11 1.12 1.17 1.23 1.25 1.25 1.25 1.25 1.23 1.24 1.24 1.22 1.19 1.13 1.05 0.99 0.95 0.90 0.84 0.79 0.75 0.73 0.71 0.70 0.70 0.69 0.67 0.70 0.73 0.77 0.73 0.73 0.76 0.75 0.77 0.79 0.80 0.80 0.81 0.82 0.80 0.77 0.74 0.71 0.71 0.70 0.70 0.72 0.70 0.69 0.71 0.68 0.66 0.64 0.62 0.61 0.59 0.57 0.56 0.55 0.54 0.53 0.51 0.49 0.49 0.48 0.47 0.45 0.44 0.44 0.43
0.84 0.86 0.91 0.92 0.92 0.93 0.91 0.89 0.90 0.90 0.89 0.92 0.95 0.97 0.96 1.01 1.01 1.05 1.14 1.17 1.16 1.14 1.12 1.11 1.08 1.05 1.00 0.95 0.92 0.86 0.81 0.80 0.78 0.76 0.73 0.71 0.70 0.70 0.71 0.70 0.68 0.69 0.73 0.71 0.69 0.71 0.74 0.75 0.75 0.77 0.77 0.75 0.76 0.74 0.72 0.71 0.70 0.69 0.68 0.66 0.65 0.66 0.67 0.67 0.67 0.64 0.62 0.61 0.60 0.58 0.57 0.56 0.55 0.54 0.53 0.52 0.50 0.48 0.48 0.46 0.46 0.46 0.45 0.42 0.42
0.87 0.86 0.87 0.88 0.85 0.85 0.85 0.84 0.85 0.86 0.88 0.88 0.87 0.86 0.90 0.91 0.92 0.92 0.90 0.92 0.94 0.96 0.98 0.96 0.92 0.90 0.88 0.86 0.84 0.81 0.78 0.75 0.73 0.72 0.70 0.68 0.68 0.68 0.67 0.67 0.68 0.70 0.72 0.69 0.70 0.70 0.73 0.72 0.72 0.71 0.71 0.71 0.70 0.69 0.67 0.66 0.66 0.64 0.64 0.63 0.63 0.64 0.64 0.65 0.63 0.61 0.60 0.60 0.58 0.58 0.57 0.56 0.56 0.54 0.52 0.52 0.52 0.51 0.49 0.48 0.47 0.45 0.44 0.43 0.41
0.94 0.93 0.90 0.86 0.86 0.87 0.86 0.85 0.83 0.83 0.84 0.84 0.84 0.81 0.79 0.79 0.77 0.74 0.72 0.70 0.69 0.71 0.75 0.83 0.87 0.87 0.85 0.82 0.79 0.77 0.75 0.74 0.72 0.71 0.70 0.70 0.70 0.71 0.70 0.65 0.62 0.64 0.70 0.72 0.71 0.70 0.70 0.70 0.70 0.71 0.71 0.70 0.70 0.70 0.68 0.68 0.67 0.66 0.65 0.64 0.64 0.64 0.64 0.64 0.63 0.63 0.62 0.61 0.60 0.59 0.59 0.58 0.57 0.56 0.55 0.53 0.52 0.50 0.49 0.49 0.48 0.47 0.45 0.44 0.43
1.02 1.03 1.03 0.99 0.95 0.92 0.92 0.91 0.90 0.87 0.85 0.83 0.83 0.81 0.80 0.78 0.75 0.75 0.75 0.74 0.71 0.71 0.74 0.77 0.80 0.83 0.83 0.82 0.80 0.78 0.75 0.73 0.71 0.69 0.70 0.73 0.73 0.71 0.64 0.60 0.60 0.61 0.63 0.68 0.70 0.72 0.73 0.73 0.73 0.73 0.74 0.74 0.74 0.73 0.72 0.70 0.69 0.68 0.68 0.67 0.66 0.66 0.65 0.65 0.65 0.64 0.64 0.63 0.61 0.60 0.59 0.59 0.59 0.58 0.57 0.56 0.54 0.52 0.51 0.50 0.49 0.48 0.47 0.45 0.44
1.04 1.04 1.06 1.06 1.05 1.03 1.02 0.99 0.97 0.95 0.94 0.93 0.92 0.89 0.87 0.85 0.84 0.84 0.82 0.81 0.80 0.80 0.79 0.80 0.82 0.83 0.86 0.86 0.85 0.82 0.80 0.77 0.75 0.74 0.74 0.78 0.80 0.77 0.70 0.66 0.63 0.63 0.63 0.65 0.67 0.70 0.70 0.72 0.75 0.75 0.76 0.75 0.74 0.74 0.74 0.73 0.73 0.72 0.72 0.71 0.70 0.69 0.68 0.67 0.67 0.65 0.63 0.61 0.60 0.60 0.59 0.59 0.59 0.59 0.57 0.54 0.54 0.52 0.51 0.50 0.48 0.47 0.46 0.44 0.43
1.05 1.05 1.05 1.06 1.06 1.06 1.04 1.03 1.03 1.02 1.01 0.99 0.98 0.96 0.93 0.90 0.90 0.88 0.87 0.87 0.87 0.86 0.85 0.86 0.86 0.84 0.82 0.86 0.92 0.89 0.85 0.83 0.82 0.80 0.81 0.83 0.82 0.77 0.73 0.70 0.69 0.67 0.67 0.68 0.70 0.70 0.70 0.72 0.74 0.74 0.74 0.75 0.74 0.75 0.74 0.74 0.74 0.74 0.73 0.73 0.72 0.71 0.69 0.67 0.65 0.63 0.62 0.60 0.59 0.59 0.59 0.58 0.58 0.57 0.56 0.53 0.51 0.50 0.48 0.48 0.46 0.44 0.43 0.42 0.41
1.05 1.05 1.06 1.06 1.05 1.03 1.02 1.00 0.99 0.99 0.98 0.98 0.97 0.94 0.91 0.91 0.92 0.92 0.92 0.93 0.94 0.92 0.91 0.92 0.92 0.91 0.92 0.95 0.94 0.95 0.89 0.83 0.79 0.78 0.80 0.82 0.83 0.80 0.77 0.74 0.72 0.71 0.71 0.72 0.73 0.73 0.73 0.73 0.75 0.77 0.77 0.77 0.77 0.77 0.76 0.75 0.74 0.73 0.71 0.69 0.67 0.65 0.63 0.62 0.61 0.61 0.60 0.59 0.59 0.59 0.58 0.57 0.56 0.54 0.53 0.51 0.49 0.48 0.46 0.45 0.44 0.42 0.40 0.39 0.39
1.02 1.02 1.03 1.03 1.01 1.01 1.00 0.98 0.96 0.94 0.94 0.92 0.91 0.91 0.90 0.88 0.88 0.89 0.92 0.93 0.93 0.94 0.94 0.92 0.92 0.93 0.98 0.99 0.96 0.95 0.88 0.85 0.83 0.83 0.83 0.84 0.83 0.82 0.80 0.77 0.75 0.74 0.73 0.73 0.73 0.72 0.72 0.72 0.73 0.72 0.72 0.72 0.71 0.70 0.69 0.67 0.66 0.65 0.64 0.62 0.60 0.59 0.59 0.59 0.59 0.58 0.58 0.58 0.58 0.57 0.56 0.55 0.54 0.52 0.50 0.50 0.48 0.47 0.44 0.43 0.42 0.41 0.41 0.40 0.40
1.00 1.00 1.00 1.00 0.98 0.97 0.97 0.96 0.94 0.91 0.90 0.91 0.91 0.90 0.88 0.87 0.86 0.86 0.86 0.87 0.88 0.90 0.90 0.90 0.91 0.96 0.99 1.00 1.00 0.97 0.93 0.89 0.88 0.87 0.87 0.85 0.83 0.82 0.80 0.79 0.77 0.76 0.75 0.74 0.74 0.73 0.72 0.71 0.70 0.70 0.69 0.68 0.68 0.67 0.66 0.65 0.64 0.63 0.61 0.61 0.60 0.59 0.59 0.58 0.58 0.58 0.58 0.57 0.55 0.54 0.53 0.52 0.51 0.49 0.46 0.46 0.47 0.45 0.43 0.42 0.42 0.41 0.41 0.41 0.41
1.00 0.99 0.98 0.98 0.97 0.94 0.91 0.91 0.93 0.95 0.94 0.92 0.90 0.89 0.87 0.85 0.82 0.81 0.82 0.83 0.85 0.86 0.86 0.87 0.89 0.92 0.95 0.97 0.97 0.97 0.94 0.92 0.90 0.88 0.88 0.86 0.83 0.82 0.81 0.79 0.79 0.77 0.76 0.74 0.73 0.72 0.70 0.69 0.69 0.68 0.66 0.66 0.65 0.64 0.63 0.62 0.61 0.60 0.60 0.59 0.58 0.58 0.57 0.57 0.57 0.57 0.56 0.55 0.54 0.53 0.51 0.50 0.49 0.47 0.46 0.46 0.45 0.43 0.42 0.42 0.41 0.41 0.41 0.41 0.41
0.97 0.96 0.96 0.97 0.96 0.95 0.92 0.90 0.90 0.90 0.91 0.90 0.89 0.89 0.86 0.81 0.76 0.74 0.74 0.77 0.80 0.81 0.82 0.83 0.85 0.89 0.91 0.94 0.95 0.94 0.92 0.90 0.89 0.88 0.86 0.84 0.82 0.82 0.80 0.78 0.78 0.77 0.76 0.75 0.75 0.73 0.70 0.68 0.67 0.66 0.65 0.64 0.64 0.63 0.62 0.61 0.61 0.59 0.59 0.58 0.57 0.57 0.56 0.56 0.56 0.55 0.55 0.53 0.52 0.51 0.49 0.48 0.46 0.45 0.44 0.44 0.43 0.43 0.42 0.42 0.41 0.41 0.41 0.41 0.42
0.91 0.92 0.93 0.92 0.93 0.93 0.94 0.92 0.88 0.86 0.85 0.87 0.89 0.87 0.85 0.81 0.78 0.76 0.75 0.76 0.78 0.81 0.81 0.82 0.83 0.85 0.87 0.90 0.92 0.91 0.88 0.88 0.86 0.85 0.83 0.81 0.80 0.79 0.79 0.79 0.79 0.78 0.77 0.76 0.74 0.73 0.70 0.67 0.65 0.65 0.65 0.65 0.65 0.65 0.64 0.63 0.62 0.59 0.58 0.58 0.57 0.56 0.55 0.55 0.54 0.53 0.52 0.50 0.49 0.48 0.47 0.46 0.46 0.45 0.44 0.44 0.44 0.42 0.41 0.41 0.41 0.41 0.42 0.42 0.43
0.80 0.81 0.84 0.86 0.88 0.89 0.90 0.92 0.91 0.86 0.84 0.83 0.82 0.83 0.85 0.85 0.82 0.79 0.77 0.76 0.77 0.79 0.80 0.81 0.82 0.82 0.82 0.84 0.86 0.86 0.86 0.86 0.87 0.86 0.84 0.83 0.82 0.82 0.82 0.82 0.82 0.82 0.80 0.79 0.78 0.76 0.73 0.71 0.69 0.67 0.66 0.66 0.65 0.64 0.63 0.63 0.62 0.61 0.60 0.58 0.57 0.55 0.55 0.54 0.53 0.52 0.52 0.49 0.48 0.46 0.46 0.45 0.44 0.44 0.43 0.43 0.43 0.41 0.41 0.41 0.41 0.42 0.42 0.42 0.42
0.67 0.69 0.71 0.74 0.77 0.80 0.82 0.83 0.86 0.86 0.86 0.85 0.84 0.82 0.83 0.86 0.87 0.87 0.86 0.84 0.82 0.81 0.80 0.81 0.82 0.84 0.85 0.86 0.87 0.88 0.88 0.88 0.88 0.87 0.85 0.85 0.85 0.84 0.85 0.86 0.86 0.85 0.83 0.81 0.79 0.77 0.75 0.73 0.70 0.67 0.65 0.63 0.62 0.62 0.62 0.62 0.61 0.60 0.60 0.59 0.57 0.55 0.54 0.53 0.53 0.51 0.50 0.48 0.47 0.46 0.45 0.45 0.44 0.44 0.43 0.43 0.43 0.43 0.42 0.43 0.43 0.42 0.42 0.43 0.43
0.60 0.59 0.59 0.60 0.62 0.64 0.69 0.74 0.77 0.79 0.80 0.81 0.82 0.81 0.79 0.78 0.79 0.79 0.81 0.81 0.81 0.81 0.79 0.80 0.81 0.83 0.86 0.87 0.88 0.89 0.90 0.89 0.88 0.87 0.87 0.87 0.87 0.86 0.87 0.87 0.85 0.83 0.81 0.79 0.77 0.74 0.72 0.70 0.67 0.65 0.63 0.62 0.61 0.60 0.59 0.58 0.57 0.57 0.57 0.56 0.54 0.53 0.52 0.52 0.51 0.50 0.48 0.48 0.48 0.47 0.46 0.45 0.43 0.43 0.42 0.43 0.42 0.42 0.42 0.41 0.42 0.41 0.42 0.42 0.41
0.54 0.54 0.54 0.53 0.53 0.53 0.54 0.57 0.60 0.64 0.68 0.73 0.77 0.77 0.76 0.75 0.74 0.72 0.70 0.70 0.70 0.71 0.71 0.71 0.71 0.73 0.77 0.80 0.84 0.86 0.86 0.87 0.87 0.86 0.86 0.85 0.85 0.85 0.85 0.84 0.82 0.80 0.78 0.76 0.73 0.70 0.67 0.64 0.64 0.63 0.62 0.60 0.58 0.56 0.56 0.56 0.55 0.54 0.54 0.53 0.53 0.52 0.51 0.50 0.49 0.48 0.48 0.48 0.48 0.47 0.46 0.44 0.43 0.43 0.43 0.43 0.42 0.42 0.41 0.41 0.41 0.41 0.41 0.41 0.41
0.52 0.51 0.51 0.52 0.52 0.52 0.51 0.50 0.51 0.50 0.52 0.55 0.60 0.66 0.72 0.75 0.77 0.77 0.77 0.77 0.77 0.76 0.74 0.72 0.73 0.76 0.78 0.80 0.81 0.81 0.82 0.84 0.85 0.83 0.83 0.83 0.84 0.84 0.83 0.82 0.81 0.79 0.76 0.72 0.69 0.67 0.65 0.65 0.64 0.63 0.61 0.58 0.56 0.55 0.55 0.53 0.52 0.51 0.51 0.51 0.52 0.51 0.49 0.49 0.50 0.49 0.49 0.49 0.48 0.47 0.46 0.45 0.44 0.43 0.43 0.43 0.43 0.43 0.42 0.42 0.42 0.41 0.42 0.42 0.41
0.51 0.52 0.52 0.53 0.53 0.54 0.57 0.57 0.56 0.55 0.54 0.52 0.50 0.50 0.55 0.60 0.65 0.70 0.74 0.77 0.79 0.79 0.78 0.76 0.76 0.75 0.75 0.75 0.76 0.77 0.77 0.78 0.80 0.81 0.82 0.82 0.83 0.84 0.82 0.82 0.80 0.77 0.74 0.70 0.67 0.66 0.65 0.64 0.62 0.60 0.58 0.56 0.55 0.54 0.52 0.52 0.51 0.50 0.50 0.50 0.48 0.48 0.50 0.50 0.50 0.50 0.49 0.48 0.47 0.46 0.45 0.44 0.44 0.44 0.44 0.44 0.44 0.44 0.43 0.43 0.43 0.44 0.43 0.42 0.42
0.48 0.48 0.49 0.50 0.51 0.53 0.54 0.55 0.55 0.56 0.57 0.57 0.56 0.55 0.53 0.53 0.54 0.58 0.61 0.63 0.64 0.67 0.69 0.70 0.71 0.72 0.71 0.72 0.76 0.80 0.81 0.83 0.83 0.85 0.85 0.87 0.87 0.86 0.83 0.79 0.75 0.72 0.69 0.67 0.65 0.65 0.64 0.62 0.60 0.57 0.55 0.52 0.51 0.50 0.50 0.50 0.51 0.52 0.51 0.50 0.50 0.51 0.51 0.50 0.49 0.48 0.48 0.48 0.47 0.47 0.46 0.45 0.44 0.43 0.44 0.44 0.44 0.43 0.43 0.43 0.44 0.44 0.44 0.43 0.43
Wind_Speed
17 17 17 17 17 17 17 17 16 16 15 14 14 13 13 12 12 11 11 11 10 10 9 9 9 9 9 8 8 8 8 8 7 7 6 6 6 6 6 5 5 5 5 5 5 5 5 5 5 5 5 6 6 6 6 6 7 7 7 7 7 7 8 8 8 9 9 9 9 9 9 9 10 10 10 10 10 10 10 10 10 10 10 10 11
18 17 17 17 17 17 17 17 17 17 16 15 15 14 14 13 13 12 12 12 11 11 10 10 10 10 9 9 9 9 8 8 8 7 7 7 7 7 6 6 6 6 6 5 5 5 5 6 6 6 6 6 7 7 7 7 7 7 7 8 8 8 8 8 8 9 9 9 9 9 9 9 9 10 10 10 10 10 10 10 11 11 11 11 11
18 18 17 17 17 17 17 17 17 17 17 16 16 15 14 14 14 14 13 13 12 12 12 11 11 10 10 10 9 9 9 9 8 8 8 7 7 7 7 7 7 7 6 6 6 6 6 6 6 6 6 7 7 7 7 7 7 7 7 7 8 8 8 8 8 8 9 9 9 9 9 9 10 10 11 11 11 11 11 10 11 11 11 11 11
18 18 18 18 17 17 17 17 17 17 17 16 16 16 15 15 15 14 14 13 13 13 12 12 12 11 11 10 10 10 10 9 9 9 9 8 8 8 8 8 8 7 7 7 7 7 7 7 7 7 7 7 7 7 8 8 7 8 8 8 8 8 8 8 8 8 8 9 9 9 9 10 10 10 11 11 11 11 11 11 11 11 11 12 12
19 19 19 18 18 18 17 17 17 17 17 16 16 16 16 15 15 15 14 14 14 13 13 13 13 12 12 12 11 11 10 10 10 10 9 9 9 9 8 8 8 8 8 8 8 8 8 8 8 8 8 8 8 8 8 8 8 8 9 9 8 8 8 8 9 9 9 10 10 10 10 10 10 10 11 11 11 11 11 11 11 12 12 12 12
19 19 19 19 19 19 18 18 18 17 17 17 16 16 16 16 15 15 15 14 14 14 13 13 13 13 13 13 12 12 11 11 11 11 10 10 10 10 9 9 9 9 9 9 9 9 9 9 9 8 8 8 9 9 8 8 9 9 9 9 9 9 9 9 9 9 10 10 11 11 11 11 11 11 11 11 12 12 12 12 12 12 13 13 13
20 20 20 20 20 20 19 19 18 18 18 17 17 16 16 16 15 15 15 14 14 14 13 13 13 13 13 13 13 13 12 12 11 11 11 11 11 11 11 11 11 11 10 10 10 10 10 10 10 9 9 9 9 9 9 9 9 9 9 9 9 10 10 10 10 10 10 11 11 11 12 11 11 11 12 12 12 12 12 12 13 13 13 14 14
20 20 21 21 20 21 20 20 19 19 18 18 18 17 17 16 16 15 15 14 14 14 13 13 13 13 13 13 13 13 13 13 12 12 12 12 12 12 12 12 12 12 11 11 11 11 11 10 11 10 10 10 10 10 10 10 10 10 10 10 10 11 11 11 11 11 11 12 12 12 13 13 12 12 13 13 13 13 13 14 14 15 15 15 15
21 21 21 22 21 21 21 21 20 20 19 19 19 18 18 17 17 16 16 15 15 14 14 14 13 13 13 13 14 14 13 13 13 13 13 13 13 13 13 13 13 13 12 12 12 12 11 11 11 11 12 12 12 12 11 11 12 12 12 12 12 12 12 12 13 13 13 13 14 14 14 14 14 14 15 15 15 15 15 15 16 16 16 17 16
22 22 22 22 22 22 22 21 21 21 20 20 20 19 19 18 18 18 17 16 16 15 15 15 14 14 14 14 14 15 14 14 14 14 14 13 13 13 14 14 13 13 13 13 13 13 13 12 12 13 13 13 13 13 13 13 13 13 13 13 13 13 13 13 14 14 14 15 15 15 15 15 15 16 16 16 16 16 17 17 17 18 18 18 17
23 23 23 23 22 22 22 22 22 22 21 21 21 20 20 19 19 19 18 17 17 17 16 16 16 15 15 15 15 15 15 15 15 14 14 15 15 15 15 14 14 14 14 14 14 14 14 14 14 14 14 14 14 14 14 14 14 14 14 14 14 14 14 15 15 15 16 16 16 17 17 17 17 18 18 18 18 18 18 18 19 19 19 19 18
23 24 24 23 23 23 23 23 23 22 22 22 21 21 20 20 20 20 19 18 18 17 17 17 17 17 17 16 16 16 16 16 16 16 16 16 16 16 16 15 15 15 16 15 15 15 15 15 15 15 15 15 15 15 15 15 15 15 15 15 15 16 16 16 17 17 17 18 18 18 18 19 19 19 19 19 19 20 20 20 20 20 20 20 20
24 24 24 24 24 23 23 23 23 23 23 22 22 21 21 21 21 20 20 19 19 19 18 18 18 18 18 17 17 17 17 17 17 17 17 17 17 17 17 16 15 16 17 17 17 17 17 16 16 16 16 16 16 16 16 16 16 16 17 17 17 17 18 18 18 18 18 19 19 19 19 19 20 20 20 20 21 21 21 21 21 21 21 21 20
25 25 25 24 24 24 24 24 24 24 23 23 22 22 21 21 21 21 21 20 20 20 20 20 19 19 19 18 18 18 18 18 18 18 18 18 18 18 18 17 17 17 17 18 18 18 18 18 18 18 18 18 18 18 18 18 18 18 18 18 19 19 19 19 19 20 20 20 20 19 20 20 20 20 21 21 21 22 22 22 22 21 21 21 20
25 25 25 25 25 25 24 25 25 24 23 23 22 21 21 21 21 21 21 21 21 20 20 20 20 20 20 20 19 19 19 19 18 18 18 18 18 18 19 19 18 18 18 18 19 19 19 19 19 19 19 19 19 19 20 20 20 20 20 20 20 20 20 21 21 21 21 20 20 20 20 20 21 21 21 22 22 22 22 22 22 22 22 21 20
26 26 25 25 25 25 24 25 25 25 23 23 23 22 21 21 21 21 21 21 21 21 20 20 21 21 21 21 21 20 20 20 19 19 19 19 19 19 19 19 19 19 19 19 19 19 20 20 20 20 20 21 21 21 21 21 21 21 21 21 21 21 21 21 21 20 20 20 20 21 21 20 20 21 21 22 22 22 22 22 22 22 22 21 21
27 27 26 25 25 25 24 25 25 25 25 24 24 23 22 22 22 22 21 21 21 21 21 21 21 21 21 22 22 22 21 21 20 20 20 20 20 20 20 20 20 20 20 20 20 20 20 21 21 21 22 22 22 23 23 23 23 23 22 22 22 22 22 21 21 20 20 20 20 21 21 20 21 21 21 22 22 22 22 22 22 22 21 21 21
27 27 26 25 24 24 24 24 25 25 25 25 24 23 23 23 23 22 22 22 21 21 21 22 22 22 21 21 22 22 22 21 21 21 21 21 21 21 21 21 21 21 21 21 21 21 21 21 22 23 23 23 23 24 24 24 24 24 24 23 23 23 22 22 22 21 21 21 21 21 21 21 21 22 22 22 22 22 22 22 22 22 21 21 21
26 26 25 24 23 23 23 23 24 24 25 24 23 23 23 23 23 23 23 23 22 22 22 23 22 22 22 22 22 22 22 22 22 21 21 21 21 21 22 22 22 22 22 22 23 23 23 23 23 23 24 24 24 24 24 24 24 24 24 24 23 23 23 22 22 22 22 21 21 22 21 22 22 22 22 22 21 22 22 21 21 21 21 21 22
24 25 24 23 23 23 22 22 23 24 24 24 23 22 23 23 24 23 23 24 24 23 23 23 23 23 23 23 22 22 22 22 22 22 22 22 22 22 23 23 23 23 23 23 23 23 23 23 23 24 24 24 24 24 24 25 25 25 25 24 23 23 23 22 22 21 21 21 21 21 21 22 22 22 22 21 21 21 21 21 21 21 21 21 21
22 24 24 23 23 23 23 23 23 23 24 23 23 23 23 24 25 25 25 25 25 24 24 24 24 24 23 23 22 21 22 22 22 22 23 23 23 23 23 23 23 23 23 23 23 23 23 24 24 24 24 25 25 25 25 25 25 24 24 23 22 22 21 21 21 21 21 21 20 21 21 21 21 22 22 22 22 22 22 22 22 22 22 22 22
20 21 22 22 22 22 22 22 22 22 22 22 22 22 22 23 24 24 24 24 24 24 24 24 24 24 23 23 22 21 22 22 22 22 22 22 22 22 22 22 23 23 23 23 23 23 23 24 24 24 24 24 24 24 23 22 22 21 21 20 20 19 19 20 20 20 20 20 20 20 21 22 22 22 22 22 22 22 23 23 23 23 22 22 22
17 17 18 19 19 19 19 19 19 19 19 19 19 19 19 20 21 21 22 21 21 20 20 20 20 20 21 23 23 22 21 20 19 19 20 20 20 20 21 21 21 22 23 23 23 23 22 22 22 22 21 20 20 20 20 19 18 17 17 17 17 18 18 19 20 20 20 20 21 22 22 23 24 24 23 23 23 23 23 23 23 23 23 23 23
15 15 16 16 17 17 17 17 17 17 17 17 17 17 17 18 18 19 19 19 18 17 16 15 15 15 16 18 20 20 20 19 19 18 18 18 18 18 18 19 19 20 21 22 23 23 23 22 20 20 19 19 19 19 18 17 16 16 15 16 16 18 19 19 20 20 21 21 22 23 24 24 25 25 24 24 24 24 24 24 24 24 24 24 24
14 14 15 15 15 15 16 16 16 16 17 17 17 16 16 16 16 16 16 16 15 15 15 15 15 14 14 15 17 18 19 19 19 19 18 17 17 17 17 18 18 19 20 21 22 22 22 22 21 20 20 20 20 19 18 17 17 17 17 18 19 20 21 21 21 22 22 23 24 24 24 25 25 25 25 25 25 25 25 25 25 25 25 25 25
12 13 14 14 14 14 14 14 14 15 15 15 15 15 15 15 15 15 15 15 15 15 15 15 15 15 14 14 15 15 15 15 16 16 16 16 16 16 17 18 18 19 19 19 19 20 20 20 20 19 19 19 18 18 18 18 18 18 19 20 21 22 22 23 23 23 24 24 25 25 25 25 25 25 25 25 25 25 25 26 26 26 26 26 27
12 13 13 13 13 13 13 13 13 13 13 14 14 14 15 15 15 15 15 15 15 15 15 15 14 14 14 14 14 14 14 14 14 15 16 16 17 17 18 18 18 18 18 18 18 18 18 18 18 18 17 17 17 17 17 18 18 19 20 21 21 21 22 22 23 24 24 25 25 25 25 25 25 24 25 25 25 25 26 26 26 26 27 27 27
13 13 13 13 13 13 14 13 14 14 14 14 14 15 15 15 15 14 14 14 14 14 15 15 14 14 14 14 14 14 14 15 15 16 16 17 17 17 17 17 18 18 18 18 18 18 17 16 16 16 17 17 17 17 18 18 19 20 21 21 21 21 22 22 23 24 24 24 24 24 24 25 25 25 25 25 26 26 27 27 27 28 28 28 29
12 13 14 14 14 14 14 14 14 15 15 15 15 15 14 15 15 14 14 14 14 14 15 15 15 15 15 14 14 15 15 15 15 16 16 16 17 17 17 17 17 17 18 18 18 17 17 17 17 17 17 18 18 19 19 20 21 21 22 22 22 23 23 23 24 24 24 24 24 24 25 25 25 26 26 27 27 28 28 29 29 29 30 30 31
13 14 14 14 14 14 15 15 15 15 15 16 16 15 15 15 15 15 15 15 15 16 16 16 16 16 16 16 16 16 16 16 16 16 17 17 17 18 18 18 18 18 19 19 18 18 18 18 18 18 19 19 19 20 21 21 22 22 23 23 23 24 24 24 24 24 24 24 25 25 26 26 26 27 27 28 28 29 30 30 31 31 32 32 33
15 15 15 15 15 15 15 15 15 16 16 17 17 17 16 16 16 16 16 16 16 17 17 17 17 17 18 18 17 17 17 17 18 18 18 19 19 19 19 20 19 19 20 20 19 19 19 19 19 19 20 20 20 21 21 22 22 23 23 23 24 24 24 24 25 25 25 26 26 26 27 27 28 28 29 29 30 31 31 32 32 33 33 34 34
15 15 16 16 16 16 16 16 16 16 16 17 17 18 17 17 17 17 17 17 17 17 17 18 18 18 19 19 19 19 19 19 19 19 19 20 20 20 21 21 21 21 21 21 20 20 21 21 21 21 21 22 22 22 22 23 23 24 24 24 24 25 25 26 26 27 27 27 28 28 29 29 30 30 31 31 32 32 33 33 34 34 35 35 36
15 15 15 16 16 16 16 16 16 16 16 17 17 18 18 18 18 18 18 18 18 18 18 19 19 19 19 19 19 19 19 19 19 19 20 20 20 20 21 21 21 21 21 21 21 22 22 22 23 23 23 23 23 24 24 24 24 25 25 25 26 26 27 27 27 28 28 29 29 29 30 30 31 32 32 33 33 34 35 35 35 36 36 37 37
15 16 16 16 16 16 16 16 16 16 17 17 17 18 18 19 19 19 19 19 19 19 19 19 19 19 19 19 19 19 20 20 20 20 20 20 20 21 21 21 21 21 22 22 23 23 24 24 24 25 25 25 25 25 25 26 26 26 26 27 27 28 28 28 29 29 29 30 30 31 31 32 32 33 34 34 35 36 36 37 37 38 38 39 39
16 16 16 17 17 17 17 17 17 17 17 18 18 18 18 19 20 20 20 20 20 20 20 20 20 20 20 21 21 20 20 20 20 20 20 21 21 21 21 22 22 22 23 23 24 24 25 25 26 26 26 27 27 27 27 27 28 28 28 29 29 29 30 30 30 31 31 32 32 32 33 33 34 34 35 36 36 37 37 38 38 39 40 40 41
16 17 17 17 18 18 18 18 19 19 19 19 19 19 20 20 20 21 21 21 21 21 21 22 22 22 22 22 21 21 21 21 21 21 22 22 22 23 23 23 23 23 23 24 24 25 25 26 26 27 27 27 28 28 28 28 29 29 30 30 30 31 31 32 32 32 33 33 33 34 34 35 35 36 36 37 37 38 38 39 40 41 41 42 42
18 18 18 18 19 19 20 20 20 20 21 21 21 21 21 22 22 22 22 22 22 22 22 23 23 23 23 23 23 23 23 23 23 23 23 23 24 24 24 24 24 24 24 25 25 25 26 26 27 27 28 28 28 29 29 30 30 31 31 31 32 32 33 33 34 34 34 35 35 35 36 36 37 38 38 38 39 40 40 41 42 42 43 43 43
19 19 19 20 20 20 21 21 21 22 22 22 23 23 23 23 24 24 24 24 24 24 24 24 25 25 25 24 25 25 25 25 25 25 25 25 25 25 25 25 25 25 25 26 26 26 27 27 28 28 28 29 29 30 31 31 32 32 33 33 33 34 34 34 35 35 36 36 36 37 37 38 39 39 40 40 41 41 42 43 43 44 44 44 43
20 21 21 21 21 22 22 22 22 23 23 23 24 24 24 25 25 25 25 26 26 26 26 27 27 27 27 27 27 27 26 26 26 26 26 26 26 26 26 26 26 26 26 27 27 28 28 28 29 29 30 30 31 31 32 32 33 33 34 34 34 35 35 35 36 36 37 37 38 38 39 39 40 40 41 41 42 43 43 44 44 45 44 44 44
22 23 23 23 23 24 24 24 24 24 25 25 25 26 26 26 26 27 27 27 27 28 28 28 29 29 29 28 28 28 28 28 28 28 28 28 28 28 27 27 27 27 27 28 28 29 29 30 30 31 31 32 32 33 33 34 34 34 35 35 35 36 36 37 37 37 38 38 39 39 39 40 40 41 42 42 43 44 44 45 44 44 44 44 44
24 24 25 25 25 25 25 26 26 26 26 26 27 27 27 28 28 28 29 29 29 30 30 30 30 30 30 30 30 30 30 30 30 29 29 29 29 29 29 29 29 28 29 29 29 30 30 31 31 32 32 33 33 34 34 34 35 35 36 36 36 37 37 38 38 38 39 39 40 40 40 41 42 42 43 43 44 44 44 44 44 44 44 44 44
26 26 26 26 26 26 27 27 27 27 28 28 28 28 29 29 29 29 30 30 30 31 31 31 31 31 31 31 31 31 31 31 31 31 31 30 30 30 30 30 30 30 30 30 31 31 32 32 33 33 33 34 34 35 35 36 36 36 37 37 37 38 38 38 39 39 40 40 41 41 42 42 42 43 43 44 44 44 44 44 44 44 44 44 45
28 28 28 28 28 28 28 29 29 29 29 29 30 30 30 30 30 30 31 31 31 32 32 32 32 32 32 32 32 32 32 32 32 32 32 32 32 32 31 31 31 31 31 32 32 33 33 33 34 34 34 35 35 36 36 37 37 37 38 38 38 38 39 39 39 40 40 41 41 42 42 42 42 42 43 43 43 43 43 44 44 44 44 44 45
29 30 30 30 30 31 31 31 31 31 31 32 32 32 32 32 32 32 32 32 32 33 33 33 33 33 33 33 33 34 34 34 33 33 33 33 33 33 32 32 32 32 32 33 33 33 34 34 34 35 35 36 36 37 37 37 37 37 38 38 38 38 39 39 40 40 41 41 41 41 41 42 42 42 42 43 43 43 43 43 44 44 44 44 44
30 30 31 31 32 32 32 32 33 33 33 34 34 34 34 34 34 34 34 34 34 34 34 34 34 34 34 34 34 35 34 34 34 34 34 34 34 33 33 33 33 33 33 33 34 34 34 35 35 35 36 36 37 37 37 37 37 37 37 38 38 38 39 40 40 41 40 40 40 41 41 41 41 42 42 42 42 42 43 43 44 44 44 44 44
31 31 31 32 32 33 33 33 34 34 35 35 35 35 35 35 35 35 35 35 35 35 35 36 35 35 35 35 35 35 35 35 35 35 35 35 34 34 34 34 34 34 34 34 34 35 35 35 36 36 37 37 37 37 37 37 37 37 37 38 38 39 39 39 40 39 39 40 40 41 41 41 42 42 42 42 42 43 43 43 43 44 44 44 45
32 32 32 33 33 33 34 34 35 35 36 36 36 37 37 37 37 36 36 36 36 36 37 37 37 37 36 36 36 36 36 36 36 36 36 35 35 35 35 35 35 35 35 35 35 35 36 36 37 37 37 37 37 37 37 37 37 37 38 38 38 39 39 39 39 39 40 40 40 40 41 41 42 42 42 42 42 43 43 43 44 44 44 45 45
31 32 33 33 33 34 34 35 35 36 36 37 37 38 38 38 38 38 38 38 38 38 38 38 38 38 38 38 37 37 37 37 37 36 36 36 36 36 36 36 36 36 36 36 36 36 37 37 37 37 37 37 37 37 37 37 38 38 38 38 38 38 39 39 39 40 40 40 40 40 41 41 41 41 41 42 42 42 43 43 44 44 44 44 44
31 31 32 33 33 34 34 35 35 36 36 37 37 38 38 39 39 40 40 40 40 40 40 40 40 40 39 39 38 38 38 38 38 38 38 38 37 37 37 37 37 36 36 36 36 37 37 37 37 37 37 37 37 37 37 38 38 38 38 38 38 38 39 39 39 39 39 39 39 39 40 40 40 40 40 41 41 42 42 42 43 43 43 43 43
32 32 33 33 33 34 34 35 35 35 36 36 37 37 38 38 39 40 40 41 41 41 41 41 40 40 40 39 39 39 39 39 39 38 38 38 38 37 37 37 36 36 36 36 36 37 37 37 37 36 36 37 37 37 37 37 37 37 37 37 37 37 38 38 38 38 38 38 38 38 38 38 38 39 39 39 40 41 41 41 42 42 42 42 41
33 34 34 34 35 35 35 36 36 36 36 36 36 37 37 38 38 39 39 40 40 40 40 40 40 39 39 38 38 38 38 38 38 37 37 36 36 36 36 36 36 36 36 37 37 37 37 37 36 36 36 36 36 36 36 36 36 36 36 36 36 36 36 36 36 36 36 36 36 36 37 37 38 38 39 39 40 40 40 41 41 40 40 40 40
Wind_Direction
205 205 206 207 208 208 209 210 210 212 213 214 215 215 215 216 217 218 219 219 219 219 222 225 226 228 229 231 232 232 233 233 232 232 231 231 230 230 232 234 237 240 242 245 249 251 255 258 260 264 269 274 278 281 285 286 286 287 288 290 290 292 297 298 297 300 307 311 313 316 319 321 323 326 328 330 331 332 333 333 333 333 332 332 333
207 207 208 208 210 211 212 212 213 214 215 217 218 218 219 220 220 221 220 221 222 223 226 228 231 233 233 233 233 232 231 231 232 232 232 232 232 232 233 236 239 242 245 249 253 256 259 262 266 269 272 274 277 281 286 288 289 290 291 292 293 293 295 298 299 301 304 308 311 314 317 320 322 326 328 329 330 330 330 330 330 330 328 327 327
208 209 210 210 212 212 213 214 215 215 216 218 219 220 221 222 223 223 224 225 226 227 229 231 232 233 232 232 232 230 228 228 230 232 232 233 234 234 235 238 242 245 247 251 256 259 263 266 269 271 272 275 277 279 282 285 287 290 293 295 295 295 296 297 300 302 304 308 310 312 315 318 321 323 326 327 328 328 328 329 328 328 327 326 325
210 211 212 213 213 214 215 216 216 217 218 219 220 221 222 223 225 226 227 228 229 230 231 232 233 233 233 233 233 231 229 228 230 232 234 236 237 238 240 242 246 249 251 254 258 261 264 268 270 272 273 276 277 278 281 284 285 286 290 293 294 295 295 296 298 301 303 305 307 309 313 316 318 321 323 324 325 325 325 325 325 325 325 326 325
212 213 214 215 215 216 217 217 218 219 220 221 222 222 223 224 226 227 228 229 231 232 233 234 234 233 233 234 233 233 233 232 233 236 238 239 241 243 244 246 249 252 255 257 259 260 262 266 269 271 274 277 279 281 282 283 284 286 288 291 292 294 295 295 296 298 299 300 303 306 310 313 315 318 320 321 321 321 321 321 321 322 323 324 324
216 215 216 217 217 217 218 219 219 220 221 223 224 224 225 225 226 227 228 230 232 233 234 235 234 233 233 234 234 234 235 235 237 240 242 243 243 246 248 249 251 253 256 259 260 262 263 265 269 272 275 278 280 282 282 283 285 286 287 289 290 292 294 295 298 299 299 299 301 304 307 309 311 314 316 318 318 318 318 318 318 320 321 321 322
219 219 219 219 219 220 220 221 221 222 223 224 225 226 227 228 228 228 230 232 233 234 234 235 235 234 234 234 235 236 237 237 239 241 243 245 246 248 250 252 254 255 257 260 261 263 264 266 268 271 274 277 279 280 280 282 284 286 287 289 290 290 292 293 295 296 296 298 300 302 304 306 307 309 312 314 314 314 315 316 316 317 318 318 318
221 222 222 222 222 222 222 223 223 224 225 226 227 228 229 230 230 231 232 233 234 234 234 235 236 237 237 236 236 237 239 240 241 242 244 246 248 250 252 253 254 256 258 260 262 264 265 266 267 270 272 274 275 277 277 279 282 284 287 289 289 290 290 291 291 292 292 295 297 299 301 301 303 306 309 311 312 311 312 312 313 314 315 314 313
221 223 225 225 225 224 224 225 225 226 227 228 229 230 230 231 232 233 234 236 237 237 236 236 238 239 238 238 238 239 240 243 244 245 247 248 250 253 253 253 255 256 258 261 262 263 265 267 268 269 271 272 273 275 278 279 281 283 286 289 289 290 290 290 290 290 291 293 295 297 297 297 299 303 306 308 309 308 308 308 308 309 310 310 309
223 223 225 227 227 227 227 226 226 227 229 230 230 231 231 232 233 234 236 238 239 239 239 239 240 240 240 240 239 240 241 243 244 246 249 251 252 254 254 254 256 258 259 261 262 263 265 267 268 269 271 272 272 275 278 280 281 282 284 286 287 288 289 289 289 290 290 291 293 294 294 295 297 299 302 304 304 305 306 306 306 306 306 306 306
225 225 226 227 228 229 229 228 228 229 230 231 232 232 233 233 234 236 238 239 240 241 242 242 242 242 241 242 241 241 242 244 246 249 251 253 255 255 254 254 257 259 260 262 264 265 265 267 268 269 270 271 273 275 277 279 280 282 283 284 285 286 287 287 287 288 288 289 290 291 292 293 294 296 298 299 300 301 302 303 303 303 304 304 303
228 228 228 227 228 230 230 230 231 231 231 231 232 233 233 234 235 237 238 239 240 241 243 244 244 244 244 243 244 243 244 246 248 251 253 255 256 258 257 256 257 260 262 263 264 266 266 267 268 268 269 271 272 274 276 278 280 281 283 284 285 286 287 287 286 286 286 287 288 289 290 291 293 294 295 296 297 298 299 299 300 301 301 302 301
231 231 230 228 228 230 231 232 232 232 232 232 232 233 233 234 235 237 239 240 241 242 243 245 245 246 246 245 245 246 246 247 249 250 253 255 256 258 260 259 258 260 263 264 264 264 265 266 268 268 269 270 272 273 275 277 279 281 282 283 284 286 287 287 287 287 286 286 287 288 289 290 291 293 294 295 295 296 297 298 298 299 299 300 300
232 232 232 231 229 229 231 233 233 232 232 232 232 233 233 235 236 238 239 241 242 243 244 245 246 246 247 247 247 247 248 249 250 252 253 255 256 258 261 263 262 261 262 264 264 264 265 266 267 268 269 270 272 273 275 276 278 280 281 282 283 284 285 285 286 286 286 286 286 287 289 289 290 291 293 294 294 295 296 296 297 297 298 298 297
231 230 231 232 231 231 231 232 233 233 232 231 233 233 234 236 238 239 240 241 242 244 244 245 246 246 247 247 247 248 249 250 252 253 255 256 257 258 261 263 264 264 264 264 265 266 266 266 267 268 269 270 272 274 275 276 278 279 280 281 282 283 283 284 284 284 285 285 286 287 288 289 290 290 292 293 293 295 295 295 296 296 296 295 294
229 229 230 232 233 232 231 231 233 234 233 231 232 233 235 236 238 241 242 242 243 244 245 247 247 247 247 247 248 248 250 252 253 254 256 257 258 259 261 263 264 265 266 266 267 267 267 267 268 268 269 271 273 275 275 276 277 278 278 279 280 281 282 283 284 284 285 285 286 286 287 288 290 291 293 294 294 294 294 294 295 295 295 294 293
231 231 232 234 234 233 233 233 234 235 235 232 232 233 236 238 239 240 241 242 242 244 246 247 248 248 247 247 248 249 250 253 254 255 257 258 258 259 261 262 263 264 266 267 267 267 268 268 268 268 269 271 273 275 275 275 276 276 277 278 279 279 280 282 283 284 285 286 287 287 288 289 291 293 295 297 297 295 294 294 295 295 294 293 292
232 231 232 234 234 234 235 235 235 235 235 234 233 235 237 239 238 238 239 240 242 244 245 246 247 247 247 247 248 248 250 253 255 255 257 257 258 260 261 262 263 264 265 266 267 267 268 269 269 269 270 271 273 275 275 275 275 275 276 276 277 278 279 280 281 282 284 285 286 287 287 289 290 293 295 297 297 296 295 294 295 294 295 294 293
232 229 230 231 231 231 234 234 234 235 236 237 237 238 239 239 238 239 240 242 244 246 247 247 246 246 247 247 248 249 251 253 255 256 257 258 259 260 261 262 263 265 266 267 267 268 269 270 270 270 270 272 273 274 275 275 274 275 275 274 275 276 277 278 279 280 281 282 283 284 285 288 290 292 294 295 295 295 295 294 294 294 295 295 295
228 226 227 228 227 229 232 234 236 239 240 241 241 241 241 241 241 241 243 245 247 248 248 247 246 247 248 248 248 250 251 253 255 258 259 260 260 261 262 263 265 266 268 268 268 269 270 271 271 272 272 273 273 274 275 275 275 275 274 274 273 274 275 276 277 277 278 280 282 283 285 287 290 291 292 293 294 294 294 293 293 293 294 294 295
226 225 227 228 229 232 236 238 240 242 243 243 244 245 245 245 244 245 246 247 248 248 248 247 246 247 248 247 247 249 251 254 257 260 261 261 261 262 263 264 265 266 267 267 267 269 270 271 272 273 274 274 273 274 275 275 275 274 273 272 272 273 274 274 275 276 277 279 281 284 286 288 290 291 291 292 292 293 293 293 293 294 294 294 295
226 226 227 229 233 237 239 240 242 242 243 244 245 246 247 246 245 246 246 246 246 247 247 247 246 246 246 246 246 250 254 257 259 260 261 262 263 263 264 265 266 267 266 266 267 268 270 270 271 272 274 275 274 273 274 275 275 273 272 271 271 271 272 273 274 276 278 280 283 285 287 288 289 289 289 289 291 292 293 294 294 294 295 296 295
225 226 227 229 232 235 237 238 240 241 242 242 242 243 245 245 244 244 243 243 244 243 243 243 242 244 246 245 246 251 256 258 259 261 261 262 264 265 266 267 268 267 267 266 267 269 271 272 271 271 273 274 273 272 274 277 277 273 270 269 268 267 269 273 275 277 279 281 283 285 286 287 288 288 288 287 289 291 292 293 293 293 294 295 295
226 228 230 232 235 237 237 238 239 240 241 241 241 242 244 245 244 243 241 241 240 238 237 239 241 244 246 243 243 247 253 257 260 261 261 263 264 264 265 267 269 269 269 268 268 269 270 270 270 269 270 271 270 271 274 275 271 268 268 269 268 269 272 275 277 279 281 283 285 286 287 288 287 287 287 287 288 290 291 292 293 293 293 293 294
229 231 234 236 238 239 239 239 240 242 242 242 243 243 243 243 242 240 239 240 238 237 239 243 246 248 247 244 243 248 255 259 260 259 259 261 263 263 265 268 271 273 273 271 269 268 267 267 267 268 269 269 269 271 272 269 266 266 268 270 271 273 275 277 278 280 282 284 285 287 288 288 287 287 287 287 288 289 290 290 291 292 292 292 293
231 232 234 235 236 237 239 240 242 243 242 242 241 240 241 241 240 240 242 243 243 243 245 246 247 247 246 246 248 252 257 258 256 254 255 258 261 265 268 270 271 272 272 272 271 269 267 266 266 266 266 266 266 267 268 267 268 269 271 273 274 275 277 278 280 282 283 284 286 287 287 287 287 287 288 288 289 289 289 290 290 291 291 291 292
234 235 234 236 237 238 240 242 243 242 241 239 239 240 242 244 245 246 248 247 245 245 245 244 244 245 247 250 252 253 252 251 251 253 257 260 264 267 269 270 271 272 272 272 272 271 269 267 265 264 265 265 265 266 266 269 272 275 277 277 278 278 279 281 282 283 284 285 286 286 286 286 287 287 288 289 290 291 292 292 293 293 293 293 293
239 240 241 241 242 244 245 245 245 244 243 243 243 244 246 247 248 247 247 245 244 244 243 243 245 248 250 253 255 254 253 253 254 257 260 264 266 268 269 270 272 273 273 272 271 271 270 268 267 266 267 268 269 271 272 274 277 280 282 281 281 281 282 283 285 285 285 285 286 286 286 287 288 289 290 291 292 293 293 294 294 295 295 295 295
241 244 245 246 246 246 246 246 246 245 244 243 243 244 245 246 246 244 243 244 244 245 245 246 248 250 252 254 255 255 256 257 258 260 262 266 268 270 272 274 274 275 275 274 272 271 270 269 269 270 270 271 272 273 274 275 277 280 281 282 282 283 284 285 286 286 285 286 286 286 286 287 288 289 290 291 292 293 293 294 294 295 295 295 295
243 245 247 248 249 248 247 246 246 245 244 243 243 244 244 245 245 245 244 246 247 248 248 249 250 251 253 255 257 258 258 259 261 264 266 269 271 272 274 275 275 276 276 273 271 271 270 270 270 270 270 271 272 272 273 274 276 277 279 281 283 284 284 285 285 286 286 286 287 287 287 287 288 289 289 290 291 292 293 294 294 294 295 294 294
245 247 249 250 250 251 250 249 247 247 246 246 246 245 245 245 246 246 246 247 249 250 251 253 254 255 256 258 260 261 262 263 265 267 269 271 272 273 273 273 273 274 274 271 269 269 269 269 269 270 271 272 272 273 274 275 277 278 280 281 283 284 284 286 286 287 287 288 288 288 289 289 289 290 290 291 291 292 293 293 293 294 294 293 293
248 250 250 250 250 251 251 250 249 249 248 247 246 246 246 246 247 247 248 249 250 252 254 255 257 258 259 260 261 263 264 266 267 269 270 270 271 272 272 273 273 273 273 271 269 269 269 269 270 272 273 274 275 276 277 279 280 281 282 282 283 285 286 287 287 288 288 289 289 289 289 289 290 290 291 291 292 292 293 293 293 294 293 293 293
250 251 251 251 251 251 251 250 250 250 250 249 248 248 248 247 247 248 250 251 252 254 255 256 257 258 259 261 262 263 265 266 268 269 270 271 272 272 271 272 272 272 271 271 270 270 270 271 272 273 274 276 277 278 279 280 281 282 283 284 285 285 286 287 287 287 288 288 288 288 289 289 289 290 290 291 292 292 293 293 293 293 293 293 293
253 253 253 252 253 253 253 253 253 252 252 251 251 250 250 249 249 250 251 252 254 256 256 256 256 257 259 261 264 265 266 267 268 270 271 272 273 272 271 271 272 272 271 271 270 270 271 272 273 274 275 276 277 278 279 280 281 282 283 284 284 285 285 286 286 287 287 287 287 287 288 288 288 289 290 290 291 291 292 292 293 293 293 293 293
255 255 253 252 252 253 253 254 254 254 253 253 253 253 253 252 253 253 253 254 254 254 255 255 257 259 261 263 265 266 267 268 269 270 271 273 274 273 273 272 273 272 272 272 271 271 272 273 273 275 275 276 277 278 279 280 281 282 282 283 284 284 285 285 286 286 286 287 287 287 288 288 288 289 289 290 290 291 291 291 292 292 292 292 292
257 256 255 254 254 254 255 255 254 254 255 255 255 255 255 255 255 256 256 255 254 254 255 256 258 260 262 264 265 266 267 268 269 270 272 274 275 275 275 274 274 274 274 273 273 273 273 273 274 275 276 276 277 278 279 280 281 282 282 283 284 284 285 285 286 286 287 287 288 288 288 289 289 290 290 290 291 291 291 292 292 292 292 292 293
259 259 257 257 256 257 258 258 257 257 257 256 256 257 257 257 257 257 257 256 256 256 257 258 259 261 262 263 265 266 268 269 270 272 274 276 277 276 276 276 275 275 274 274 274 274 274 275 275 275 276 277 278 278 279 280 281 282 282 283 284 284 285 286 286 287 287 287 288 288 289 289 290 290 291 291 291 292 292 292 292 293 293 293 293
261 261 260 260 260 260 260 260 259 259 259 259 259 259 259 259 258 258 258 258 257 258 258 259 260 262 263 264 265 266 267 269 269 271 273 276 277 277 277 276 275 275 275 275 275 275 276 276 276 277 277 278 278 279 280 280 281 282 283 283 284 285 285 286 286 287 287 287 288 288 289 290 290 290 291 291 291 292 292 293 293 293 293 293 293
263 263 263 263 263 263 262 262 261 261 260 260 260 260 260 260 260 259 259 259 259 259 260 260 261 262 263 263 264 265 266 267 268 270 271 273 275 276 276 275 275 275 275 276 276 276 277 277 278 278 279 279 280 280 281 282 282 283 283 284 284 285 285 285 286 286 287 287 288 288 289 290 290 291 291 291 292 292 293 293 293 293 293 293 292
264 265 264 264 265 265 264 264 263 263 262 262 261 261 261 261 261 260 260 260 260 260 261 261 262 262 262 262 263 264 265 266 267 269 270 272 273 274 275 275 275 275 275 276 276 277 278 278 278 279 279 280 280 281 282 282 283 283 284 284 285 285 285 286 286 287 287 288 288 289 289 290 290 291 292 292 292 292 293 293 293 293 292 292 292
265 266 266 266 266 266 265 265 265 264 264 263 262 262 262 262 262 261 261 261 261 261 262 262 263 263 263 262 262 263 265 266 267 268 270 271 272 273 274 275 275 275 275 276 276 277 278 278 279 280 280 281 281 282 282 283 284 284 284 285 285 285 286 286 287 287 287 288 288 289 290 290 291 291 292 292 292 292 293 293 292 292 292 292 292
266 266 266 266 266 266 265 265 265 265 264 264 263 263 263 263 263 262 262 261 261 262 262 263 264 264 263 262 262 263 264 265 266 268 269 271 272 273 274 274 275 275 276 276 276 277 278 279 279 280 281 281 282 282 283 284 284 284 285 285 285 286 286 286 286 287 287 288 288 289 289 290 291 291 292 292 292 292 292 292 292 292 292 292 292
266 266 266 265 265 265 266 265 265 264 264 264 264 264 264 264 264 263 262 262 262 262 262 263 264 264 264 263 262 263 264 265 266 268 269 270 271 272 273 274 274 275 276 276 277 278 279 279 280 281 281 282 282 283 283 284 284 285 285 285 285 286 286 286 286 286 287 288 288 289 290 290 291 292 292 292 292 292 292 293 293 293 293 293 293
267 267 266 266 265 266 266 266 265 264 264 264 264 264 264 264 264 264 263 263 263 263 263 263 263 264 264 263 263 263 264 266 267 268 269 270 271 272 273 273 274 275 276 277 278 278 279 280 281 281 282 283 283 284 284 285 285 285 285 285 285 286 286 286 286 287 288 288 289 289 290 291 291 292 293 293 293 293 293 293 293 294 293 293 293
267 267 267 266 266 266 266 266 266 265 265 265 265 265 264 264 264 264 264 264 264 264 263 264 264 264 264 264 264 264 264 265 266 268 268 269 270 271 272 273 274 275 276 277 278 278 280 281 281 282 283 284 284 285 285 285 285 285 285 285 286 286 286 287 288 288 288 289 289 290 290 291 292 293 293 294 294 294 294 294 294 294 294 293 293
268 268 268 268 267 267 267 266 266 265 265 266 265 265 265 265 265 265 264 264 264 264 264 264 264 264 265 264 264 264 264 265 266 267 268 268 269 270 271 272 273 275 276 277 277 278 279 280 281 283 284 284 285 285 285 285 285 285 286 286 286 287 287 288 288 288 288 289 289 290 291 291 292 293 294 293 293 293 293 294 295 294 294 293 293
270 270 269 269 269 269 268 268 267 267 266 266 265 265 264 264 264 264 264 264 264 264 264 264 264 264 264 264 264 264 265 266 266 267 268 268 269 270 271 272 274 275 276 277 278 279 280 281 282 283 284 284 284 285 285 285 286 286 286 286 287 287 287 288 288 288 289 289 290 290 291 291 292 293 293 293 293 294 294 294 295 295 295 294 293
271 271 270 270 270 270 270 269 269 269 268 267 267 266 265 264 264 264 264 264 265 265 264 264 264 264 264 264 264 265 265 266 266 267 267 268 269 270 271 273 274 275 277 278 278 279 280 282 282 282 283 283 283 284 284 285 285 285 286 286 287 287 288 288 288 289 290 290 290 290 291 292 292 293 293 293 294 295 295 295 296 296 295 295 295
271 271 271 271 271 271 270 270 270 270 269 269 268 268 267 266 265 265 265 265 265 265 265 264 264 264 263 263 264 264 265 265 266 267 267 268 269 270 271 272 274 275 276 278 279 279 280 281 281 281 282 282 283 283 283 284 284 285 286 287 287 287 288 289 289 290 290 290 290 291 292 293 293 294 294 295 296 296 296 297 297 297 296 296 296
272 272 272 271 271 271 271 271 271 271 270 270 269 269 268 267 267 266 266 265 265 264 264 264 264 264 263 263 263 264 264 264 265 266 267 267 268 269 270 272 273 275 276 277 279 279 280 281 281 281 282 282 283 283 284 284 285 285 286 287 288 288 288 289 289 290 290 291 292 293 294 294 295 296 296 297 297 297 297 297 297 297 297 297 297
273 273 273 273 272 272 272 272 271 271 271 271 270 270 270 269 268 268 267 266 265 264 263 263 263 263 262 262 263 264 264 264 265 265 265 266 267 268 270 271 273 274 276 277 279 279 280 280 281 282 282 282 283 283 284 285 285 286 287 287 288 288 288 289 290 291 292 293 293 294 295 296 296 296 297 297 297 297 297 297 297 297 297 297 298